| time (UTC) | temp F | wind direction | speed MPH | gust MPH | rain 1hr in | rain 24hr in | rain mn in | humidity % | barometer mb |
| 20260502130523 | 70 | 140 | 2.0 | 8.0 | 0.00 | 0.00 | 0.00 | 24 | 1021.5 |
| 20260502123757 | 69 | 263 | 3.0 | 10.0 | 0.00 | 0.00 | 0.00 | 25 | 1021.8 |
| 20260502123257 | 69 | 308 | 1.0 | 8.0 | 0.00 | 0.00 | 0.00 | 22 | 1021.9 |
| 20260502123023 | 70 | 345 | 2.0 | 4.0 | 0.00 | 0.00 | 0.00 | 27 | 1021.9 |
| 20260502122306 | 69 | 327 | 2.0 | 5.0 | 0.00 | 0.00 | 0.00 | 26 | 1022.0 |
| 20260502122258 | 69 | 132 | 2.0 | 4.0 | 0.00 | 0.00 | 0.00 | 23 | 1021.9 |
| 20260502121250 | 69 | 333 | 2.0 | 8.0 | 0.00 | 0.00 | 0.00 | 24 | 1022.0 |
| 20260502120744 | 69 | 271 | 2.0 | 9.0 | 0.00 | 0.00 | 0.00 | 29 | 1022.1 |
| 20260502120238 | 68 | 302 | 2.0 | 9.0 | 0.00 | 0.00 | 0.00 | 26 | 1022.1 |
| 20260502115732 | 68 | 343 | 3.0 | 8.0 | 0.00 | 0.00 | 0.00 | 23 | 1022.1 |
| 20260502115457 | 69 | 342 | 3.0 | 10.0 | 0.00 | 0.00 | 0.00 | 28 | 1022.2 |
| 20260502114730 | 68 | 329 | 2.0 | 10.0 | 0.00 | 0.00 | 0.00 | 27 | 1022.2 |
| 20260502114230 | 68 | 269 | 2.0 | 9.0 | 0.00 | 0.00 | 0.00 | 26 | 1022.3 |
| 20260502113730 | 68 | 239 | 3.0 | 9.0 | 0.00 | 0.00 | 0.00 | 23 | 1022.2 |
| 20260502113230 | 68 | 315 | 3.0 | 9.0 | 0.00 | 0.00 | 0.00 | 26 | 1022.4 |
| 20260502112729 | 68 | 273 | 3.0 | 9.0 | 0.00 | 0.00 | 0.00 | 25 | 1022.6 |
| 20260502112231 | 68 | 333 | 3.0 | 9.0 | 0.00 | 0.00 | 0.00 | 25 | 1022.6 |
| 20260502111728 | 68 | 256 | 3.0 | 9.0 | 0.00 | 0.00 | 0.00 | 27 | 1022.6 |
| 20260502111228 | 67 | 296 | 4.0 | 9.0 | 0.00 | 0.00 | 0.00 | 29 | 1022.6 |
| 20260502110728 | 68 | 276 | 4.0 | 10.0 | 0.00 | 0.00 | 0.00 | 26 | 1022.8 |
| 20260502110453 | 67 | 300 | 4.0 | 10.0 | 0.00 | 0.00 | 0.00 | 29 | 1022.8 |
| 20260502105951 | 67 | 290 | 4.0 | 9.0 | 0.00 | 0.00 | 0.00 | 30 | 1022.8 |
| 20260502105229 | 67 | 298 | 4.0 | 10.0 | 0.00 | 0.00 | 0.00 | 32 | 1022.8 |
| 20260502104952 | 68 | 266 | 4.0 | 10.0 | 0.00 | 0.00 | 0.00 | 27 | 1022.9 |
| 20260502104229 | 67 | 279 | 5.0 | 10.0 | 0.00 | 0.00 | 0.00 | 29 | 1022.9 |
| 20260502103729 | 67 | 316 | 5.0 | 10.0 | 0.00 | 0.00 | 0.00 | 30 | 1023.0 |
| 20260502103448 | 66 | 225 | 5.0 | 10.0 | 0.00 | 0.00 | 0.00 | 28 | 1023.1 |
| 20260502102722 | 67 | 294 | 5.0 | 11.0 | 0.00 | 0.00 | 0.00 | 28 | 1023.1 |
| 20260502102217 | 66 | 331 | 5.0 | 11.0 | 0.00 | 0.00 | 0.00 | 31 | 1023.2 |
| 20260502101710 | 65 | 321 | 7.0 | 11.0 | 0.00 | 0.00 | 0.00 | 28 | 1023.3 |
| 20260502101425 | 65 | 340 | 7.0 | 12.0 | 0.00 | 0.00 | 0.00 | 30 | 1023.3 |
| 20260502101158 | 65 | 327 | 7.0 | 12.0 | 0.00 | 0.00 | 0.00 | 33 | 1023.5 |
| 20260502100206 | 65 | 324 | 7.0 | 11.0 | 0.00 | 0.00 | 0.00 | 31 | 1023.6 |
| 20260502091204 | 62 | 330 | 5.0 | 9.0 | 0.00 | 0.00 | 0.00 | 39 | 1024.0 |
| 20260502090704 | 62 | 326 | 5.0 | 9.0 | 0.00 | 0.00 | 0.00 | 41 | 1024.1 |
| 20260502090449 | 61 | 306 | 5.0 | 9.0 | 0.00 | 0.00 | 0.00 | 43 | 1024.1 |
| 20260502090157 | 61 | 326 | 5.0 | 9.0 | 0.00 | 0.00 | 0.00 | 42 | 1024.1 |
| 20260502071145 | 49 | 217 | 0.0 | 0.0 | 0.00 | 0.00 | 0.00 | 64 | 1025.1 |
| 20260502070646 | 48 | 217 | 0.0 | 0.0 | 0.00 | 0.00 | 0.00 | 64 | 1025.3 |
| 20260502070146 | 47 | 217 | 0.0 | 0.0 | 0.00 | 0.00 | 0.00 | 70 | 1025.3 |
| 20260502065646 | 46 | 217 | 0.0 | 0.0 | 0.00 | 0.00 | 0.00 | 72 | 1025.3 |
| 20260502065146 | 45 | 217 | 0.0 | 0.0 | 0.00 | 0.00 | 0.00 | 77 | 1025.4 |
| 20260502064646 | 44 | 217 | 0.0 | 0.0 | 0.00 | 0.00 | 0.00 | 80 | 1025.4 |
| 20260502064147 | 42 | 217 | 0.0 | 0.0 | 0.00 | 0.00 | 0.00 | 82 | 1025.4 |
| 20260502063641 | 41 | 217 | 0.0 | 0.0 | 0.00 | 0.00 | 0.00 | 83 | 1025.5 |
| 20260502063142 | 40 | 217 | 0.0 | 0.0 | 0.00 | 0.00 | 0.00 | 86 | 1025.4 |
| 20260502062642 | 39 | 217 | 0.0 | 0.0 | 0.00 | 0.00 | 0.00 | 85 | 1025.5 |
| 20260502062404 | 37 | 217 | 0.0 | 0.0 | 0.00 | 0.00 | 0.00 | 90 | 1025.5 |
| 20260502062347 | 38 | 217 | 0.0 | 0.0 | 0.00 | 0.00 | 0.00 | 88 | 1025.4 |
| 20260502061142 | 36 | 217 | 0.0 | 0.0 | 0.00 | 0.00 | 0.00 | 90 | 1025.5 |
| 20260502060639 | 36 | 217 | 0.0 | 0.0 | 0.00 | 0.00 | 0.00 | 90 | 1025.5 |
| 20260502060138 | 36 | 217 | 0.0 | 0.0 | 0.00 | 0.00 | 0.00 | 90 | 1025.6 |
| 20260502055635 | 36 | 217 | 0.0 | 0.0 | 0.00 | 0.00 | 0.00 | 89 | 1025.6 |
| 20260502055135 | 36 | 217 | 0.0 | 0.0 | 0.00 | 0.00 | 0.00 | 87 | 1025.6 |
| 20260502054633 | 37 | 217 | 0.0 | 0.0 | 0.00 | 0.00 | 0.00 | 88 | 1025.7 |
| 20260502054134 | 36 | 217 | 0.0 | 0.0 | 0.00 | 0.00 | 0.00 | 88 | 1025.7 |
| 20260502053632 | 36 | 217 | 0.0 | 0.0 | 0.00 | 0.00 | 0.00 | 88 | 1025.7 |
| 20260502053620 | 36 | 217 | 0.0 | 0.0 | 0.00 | 0.00 | 0.00 | 87 | 1025.7 |
| 20260502052628 | 36 | 217 | 0.0 | 0.0 | 0.00 | 0.00 | 0.00 | 88 | 1025.7 |
| 20260502052121 | 36 | 217 | 0.0 | 0.0 | 0.00 | 0.00 | 0.00 | 89 | 1025.7 |
| 20260502051615 | 36 | 217 | 0.0 | 0.0 | 0.00 | 0.00 | 0.00 | 88 | 1025.7 |
| 20260502051110 | 36 | 217 | 0.0 | 0.0 | 0.00 | 0.00 | 0.00 | 87 | 1025.7 |
| 20260502050831 | 36 | 217 | 0.0 | 0.0 | 0.00 | 0.00 | 0.00 | 88 | 1025.7 |
| 20260502050058 | 36 | 217 | 0.0 | 0.0 | 0.00 | 0.00 | 0.00 | 88 | 1025.7 |
| 20260502045551 | 36 | 217 | 0.0 | 0.0 | 0.00 | 0.00 | 0.00 | 88 | 1025.7 |
| 20260502045313 | 35 | 217 | 0.0 | 0.0 | 0.00 | 0.00 | 0.00 | 87 | 1025.7 |
| 20260502044545 | 36 | 217 | 0.0 | 0.0 | 0.00 | 0.00 | 0.00 | 87 | 1025.7 |
| 20260502044044 | 36 | 217 | 0.0 | 0.0 | 0.00 | 0.00 | 0.00 | 86 | 1025.7 |
| 20260502043543 | 36 | 217 | 0.0 | 0.0 | 0.00 | 0.00 | 0.00 | 87 | 1025.6 |
| 20260502043042 | 36 | 217 | 0.0 | 0.0 | 0.00 | 0.00 | 0.00 | 87 | 1025.6 |
| 20260502042541 | 36 | 217 | 0.0 | 0.0 | 0.00 | 0.00 | 0.00 | 87 | 1025.6 |
| 20260502042040 | 36 | 217 | 0.0 | 0.0 | 0.00 | 0.00 | 0.00 | 88 | 1025.6 |
| 20260502041539 | 36 | 217 | 0.0 | 0.0 | 0.00 | 0.00 | 0.00 | 88 | 1025.6 |
| 20260502041040 | 36 | 217 | 0.0 | 0.0 | 0.00 | 0.00 | 0.00 | 88 | 1025.7 |
| 20260502040538 | 36 | 217 | 0.0 | 0.0 | 0.00 | 0.00 | 0.00 | 88 | 1025.7 |
| 20260502040036 | 36 | 217 | 0.0 | 0.0 | 0.00 | 0.00 | 0.00 | 88 | 1025.6 |
| 20260502035535 | 36 | 217 | 0.0 | 0.0 | 0.00 | 0.00 | 0.00 | 87 | 1025.7 |
| 20260502035301 | 36 | 217 | 0.0 | 0.0 | 0.00 | 0.00 | 0.00 | 87 | 1025.7 |
| 20260502034534 | 36 | 217 | 0.0 | 0.0 | 0.00 | 0.00 | 0.00 | 86 | 1025.7 |
| 20260502034031 | 37 | 217 | 0.0 | 0.0 | 0.00 | 0.00 | 0.00 | 86 | 1025.7 |
| 20260502033531 | 37 | 217 | 0.0 | 0.0 | 0.00 | 0.00 | 0.00 | 86 | 1025.7 |
| 20260502033029 | 36 | 217 | 0.0 | 0.0 | 0.00 | 0.00 | 0.00 | 86 | 1025.7 |
| 20260502032529 | 36 | 217 | 0.0 | 0.0 | 0.00 | 0.00 | 0.00 | 87 | 1025.7 |
| 20260502032030 | 36 | 217 | 0.0 | 0.0 | 0.00 | 0.00 | 0.00 | 88 | 1025.8 |
| 20260502031531 | 36 | 217 | 0.0 | 0.0 | 0.00 | 0.00 | 0.00 | 88 | 1025.7 |
| 20260502031255 | 36 | 217 | 0.0 | 0.0 | 0.00 | 0.00 | 0.00 | 88 | 1025.8 |
| 20260502030532 | 36 | 217 | 0.0 | 0.0 | 0.00 | 0.00 | 0.00 | 88 | 1025.8 |
| 20260502030528 | 36 | 217 | 0.0 | 0.0 | 0.00 | 0.00 | 0.00 | 87 | 1025.8 |
| 20260502025529 | 36 | 217 | 0.0 | 0.0 | 0.00 | 0.00 | 0.00 | 86 | 1025.8 |
| 20260502025029 | 37 | 217 | 0.0 | 0.0 | 0.00 | 0.00 | 0.00 | 86 | 1025.8 |
| 20260502024528 | 37 | 217 | 0.0 | 0.0 | 0.00 | 0.00 | 0.00 | 85 | 1025.8 |
| 20260502024030 | 37 | 217 | 0.0 | 0.0 | 0.00 | 0.00 | 0.00 | 85 | 1025.9 |
| 20260502023531 | 37 | 217 | 0.0 | 0.0 | 0.00 | 0.00 | 0.00 | 86 | 1026.0 |
| 20260502023031 | 37 | 217 | 0.0 | 0.0 | 0.00 | 0.00 | 0.00 | 86 | 1025.9 |
| 20260502022530 | 37 | 217 | 0.0 | 0.0 | 0.00 | 0.00 | 0.00 | 86 | 1026.0 |
| 20260502022030 | 37 | 217 | 0.0 | 0.0 | 0.00 | 0.00 | 0.00 | 87 | 1025.9 |
| 20260502021530 | 36 | 217 | 0.0 | 0.0 | 0.00 | 0.00 | 0.00 | 87 | 1026.0 |
| 20260502021031 | 37 | 217 | 0.0 | 0.0 | 0.00 | 0.00 | 0.00 | 86 | 1026.0 |
| 20260502020530 | 37 | 217 | 0.0 | 0.0 | 0.00 | 0.00 | 0.00 | 87 | 1026.0 |
| 20260502020031 | 37 | 217 | 0.0 | 0.0 | 0.00 | 0.00 | 0.00 | 86 | 1026.0 |
| 20260502015531 | 38 | 217 | 0.0 | 0.0 | 0.00 | 0.00 | 0.00 | 85 | 1026.0 |
| 20260502015514 | 38 | 217 | 0.0 | 0.0 | 0.00 | 0.00 | 0.00 | 85 | 1026.0 |
| 20260502014529 | 38 | 217 | 0.0 | 0.0 | 0.00 | 0.00 | 0.00 | 84 | 1026.0 |
| 20260502014027 | 38 | 217 | 0.0 | 0.0 | 0.00 | 0.00 | 0.00 | 84 | 1026.2 |
| 20260502013525 | 38 | 217 | 0.0 | 0.0 | 0.00 | 0.00 | 0.00 | 84 | 1026.2 |
| 20260502013251 | 38 | 217 | 0.0 | 0.0 | 0.00 | 0.00 | 0.00 | 83 | 1026.2 |
| 20260502012525 | 38 | 217 | 0.0 | 0.0 | 0.00 | 0.00 | 0.00 | 82 | 1026.2 |
| 20260502012024 | 38 | 217 | 0.0 | 0.0 | 0.00 | 0.00 | 0.00 | 83 | 1026.2 |
| 20260502011531 | 38 | 217 | 0.0 | 0.0 | 0.00 | 0.00 | 0.00 | 83 | 1026.3 |
| 20260502011026 | 38 | 217 | 0.0 | 0.0 | 0.00 | 0.00 | 0.00 | 85 | 1026.3 |
| 20260502010524 | 38 | 217 | 0.0 | 0.0 | 0.00 | 0.00 | 0.00 | 85 | 1026.3 |
| 20260502010023 | 38 | 217 | 0.0 | 0.0 | 0.00 | 0.00 | 0.00 | 84 | 1026.3 |
| 20260502005524 | 38 | 217 | 0.0 | 0.0 | 0.00 | 0.00 | 0.00 | 84 | 1026.2 |
| 20260502005024 | 38 | 217 | 0.0 | 0.0 | 0.00 | 0.00 | 0.00 | 84 | 1026.3 |
| 20260502004521 | 38 | 217 | 0.0 | 0.0 | 0.00 | 0.00 | 0.00 | 83 | 1026.3 |
| 20260502004234 | 38 | 217 | 0.0 | 0.0 | 0.00 | 0.00 | 0.00 | 83 | 1026.3 |
| 20260502003516 | 39 | 217 | 0.0 | 0.0 | 0.00 | 0.00 | 0.00 | 82 | 1026.3 |
| 20260502003239 | 39 | 217 | 0.0 | 0.0 | 0.00 | 0.00 | 0.00 | 82 | 1026.3 |
| 20260502002515 | 39 | 217 | 0.0 | 0.0 | 0.00 | 0.00 | 0.00 | 82 | 1026.3 |
| 20260502002015 | 39 | 217 | 0.0 | 0.0 | 0.00 | 0.00 | 0.00 | 83 | 1026.4 |
| 20260502001736 | 39 | 217 | 0.0 | 0.0 | 0.00 | 0.00 | 0.00 | 83 | 1026.4 |
| 20260502001014 | 39 | 217 | 0.0 | 0.0 | 0.00 | 0.00 | 0.00 | 83 | 1026.4 |
| 20260502000514 | 39 | 217 | 0.0 | 0.0 | 0.00 | 0.00 | 0.00 | 81 | 1026.4 |
| 20260502000247 | 39 | 217 | 0.0 | 0.0 | 0.00 | 0.00 | 0.00 | 82 | 1026.4 |
| 20260501235510 | 39 | 217 | 0.0 | 0.0 | 0.00 | 0.00 | 0.00 | 82 | 1026.4 |
| 20260501235011 | 39 | 217 | 0.0 | 0.0 | 0.00 | 0.00 | 0.00 | 83 | 1026.5 |
| 20260501234511 | 39 | 217 | 0.0 | 0.0 | 0.00 | 0.00 | 0.00 | 84 | 1026.4 |
| 20260501234011 | 39 | 217 | 0.0 | 0.0 | 0.00 | 0.00 | 0.00 | 83 | 1026.4 |
| 20260501233510 | 39 | 217 | 0.0 | 0.0 | 0.00 | 0.00 | 0.00 | 82 | 1026.4 |
| 20260501233007 | 39 | 217 | 0.0 | 0.0 | 0.00 | 0.00 | 0.00 | 83 | 1026.5 |
| 20260501232505 | 40 | 217 | 0.0 | 0.0 | 0.00 | 0.00 | 0.00 | 83 | 1026.4 |
| 20260501232002 | 39 | 217 | 0.0 | 0.0 | 0.00 | 0.00 | 0.00 | 82 | 1026.5 |
| 20260501231501 | 40 | 217 | 0.0 | 0.0 | 0.00 | 0.00 | 0.00 | 81 | 1026.6 |
| 20260501231002 | 40 | 217 | 0.0 | 0.0 | 0.00 | 0.00 | 0.00 | 80 | 1026.6 |
| 20260501230501 | 40 | 217 | 0.0 | 0.0 | 0.00 | 0.00 | 0.00 | 81 | 1026.6 |
| 20260501225958 | 40 | 217 | 0.0 | 1.0 | 0.00 | 0.00 | 0.00 | 81 | 1026.7 |
| 20260501225458 | 40 | 217 | 0.0 | 1.0 | 0.00 | 0.00 | 0.00 | 81 | 1026.7 |
| 20260501224959 | 40 | 217 | 0.0 | 1.0 | 0.00 | 0.00 | 0.00 | 82 | 1026.7 |
| 20260501224456 | 40 | 217 | 0.0 | 2.0 | 0.00 | 0.00 | 0.00 | 81 | 1026.7 |
| 20260501224217 | 41 | 217 | 0.0 | 2.0 | 0.00 | 0.00 | 0.00 | 79 | 1026.6 |
| 20260501223454 | 41 | 217 | 0.0 | 2.0 | 0.00 | 0.00 | 0.00 | 80 | 1026.6 |
| 20260501223219 | 41 | 217 | 1.0 | 2.0 | 0.00 | 0.00 | 0.00 | 80 | 1026.8 |
| 20260501222452 | 41 | 217 | 0.0 | 2.0 | 0.00 | 0.00 | 0.00 | 81 | 1026.8 |
| 20260501222215 | 40 | 217 | 0.0 | 0.0 | 0.00 | 0.00 | 0.00 | 82 | 1026.8 |
| 20260501221448 | 40 | 217 | 0.0 | 1.0 | 0.00 | 0.00 | 0.00 | 81 | 1026.7 |
| 20260501220947 | 41 | 217 | 0.0 | 1.0 | 0.00 | 0.00 | 0.00 | 79 | 1026.8 |
| 20260501220444 | 41 | 217 | 0.0 | 1.0 | 0.00 | 0.00 | 0.00 | 80 | 1026.7 |
| 20260501220434 | 41 | 217 | 0.0 | 1.0 | 0.00 | 0.00 | 0.00 | 81 | 1026.6 |
| 20260501215444 | 41 | 217 | 0.0 | 0.0 | 0.00 | 0.00 | 0.00 | 81 | 1026.7 |
| 20260501215435 | 41 | 217 | 0.0 | 0.0 | 0.00 | 0.00 | 0.00 | 80 | 1026.6 |
| 20260501214442 | 41 | 217 | 0.0 | 0.0 | 0.00 | 0.00 | 0.00 | 79 | 1026.6 |
| 20260501213942 | 42 | 217 | 0.0 | 1.0 | 0.00 | 0.00 | 0.00 | 77 | 1026.5 |
| 20260501213718 | 42 | 217 | 0.0 | 1.0 | 0.00 | 0.00 | 0.00 | 76 | 1026.6 |
| 20260501212942 | 42 | 217 | 0.0 | 1.0 | 0.00 | 0.00 | 0.00 | 78 | 1026.6 |
| 20260501212442 | 42 | 217 | 0.0 | 0.0 | 0.00 | 0.00 | 0.00 | 79 | 1026.6 |
| 20260501212206 | 42 | 217 | 0.0 | 0.0 | 0.00 | 0.00 | 0.00 | 79 | 1026.6 |
| 20260501211442 | 42 | 217 | 0.0 | 0.0 | 0.00 | 0.00 | 0.00 | 79 | 1026.5 |
| 20260501210942 | 42 | 217 | 0.0 | 0.0 | 0.00 | 0.00 | 0.00 | 78 | 1026.5 |
| 20260501210445 | 42 | 217 | 0.0 | 0.0 | 0.00 | 0.00 | 0.00 | 76 | 1026.5 |
| 20260501205942 | 43 | 217 | 0.0 | 0.0 | 0.00 | 0.00 | 0.00 | 75 | 1026.5 |
| 20260501205704 | 44 | 217 | 0.0 | 0.0 | 0.00 | 0.00 | 0.00 | 74 | 1026.5 |
| 20260501204942 | 43 | 217 | 0.0 | 0.0 | 0.00 | 0.00 | 0.00 | 75 | 1026.6 |
| 20260501204442 | 43 | 217 | 0.0 | 0.0 | 0.00 | 0.00 | 0.00 | 76 | 1026.6 |
| 20260501204204 | 43 | 217 | 0.0 | 0.0 | 0.00 | 0.00 | 0.00 | 77 | 1026.6 |
| 20260501203442 | 42 | 217 | 0.0 | 0.0 | 0.00 | 0.00 | 0.00 | 77 | 1026.5 |
| 20260501203209 | 42 | 217 | 0.0 | 0.0 | 0.00 | 0.00 | 0.00 | 77 | 1026.4 |
| 20260501202439 | 43 | 217 | 0.0 | 0.0 | 0.00 | 0.00 | 0.00 | 76 | 1026.5 |
| 20260501201938 | 43 | 217 | 0.0 | 0.0 | 0.00 | 0.00 | 0.00 | 77 | 1026.5 |
| 20260501201658 | 43 | 217 | 0.0 | 0.0 | 0.00 | 0.00 | 0.00 | 76 | 1026.3 |
| 20260501200935 | 43 | 217 | 0.0 | 0.0 | 0.00 | 0.00 | 0.00 | 75 | 1026.2 |
| 20260501200431 | 44 | 217 | 0.0 | 0.0 | 0.00 | 0.00 | 0.00 | 75 | 1026.0 |
| 20260501195932 | 44 | 217 | 0.0 | 0.0 | 0.00 | 0.00 | 0.00 | 75 | 1026.0 |
| 20260501195431 | 43 | 217 | 0.0 | 0.0 | 0.00 | 0.00 | 0.00 | 76 | 1026.0 |
| 20260501194930 | 43 | 217 | 0.0 | 0.0 | 0.00 | 0.00 | 0.00 | 76 | 1025.9 |
| 20260501194431 | 44 | 217 | 0.0 | 0.0 | 0.00 | 0.00 | 0.00 | 75 | 1025.9 |
| 20260501193930 | 44 | 217 | 0.0 | 0.0 | 0.00 | 0.00 | 0.00 | 75 | 1025.8 |
| 20260501193428 | 44 | 217 | 0.0 | 0.0 | 0.00 | 0.00 | 0.00 | 75 | 1025.8 |
| 20260501192921 | 44 | 217 | 0.0 | 0.0 | 0.00 | 0.00 | 0.00 | 74 | 1025.7 |
| 20260501192422 | 44 | 217 | 0.0 | 0.0 | 0.00 | 0.00 | 0.00 | 73 | 1025.7 |
| 20260501191919 | 45 | 217 | 0.0 | 1.0 | 0.00 | 0.00 | 0.00 | 72 | 1025.6 |
| 20260501191417 | 45 | 217 | 0.0 | 2.0 | 0.00 | 0.00 | 0.00 | 72 | 1025.6 |
| 20260501190916 | 45 | 217 | 0.0 | 2.0 | 0.00 | 0.00 | 0.00 | 71 | 1025.5 |
| 20260501190414 | 44 | 217 | 0.0 | 0.0 | 0.00 | 0.00 | 0.00 | 73 | 1025.5 |
| 20260501185913 | 45 | 217 | 1.0 | 3.0 | 0.00 | 0.00 | 0.00 | 73 | 1025.4 |
| 20260501185413 | 46 | 217 | 1.0 | 3.0 | 0.00 | 0.00 | 0.00 | 69 | 1025.3 |
| 20260501184914 | 46 | 217 | 1.0 | 2.0 | 0.00 | 0.00 | 0.00 | 68 | 1025.0 |
| 20260501184413 | 46 | 217 | 0.0 | 2.0 | 0.00 | 0.00 | 0.00 | 70 | 1025.1 |
| 20260501183913 | 45 | 217 | 0.0 | 0.0 | 0.00 | 0.00 | 0.00 | 71 | 1025.0 |
| 20260501183412 | 46 | 217 | 0.0 | 2.0 | 0.00 | 0.00 | 0.00 | 70 | 1024.9 |
| 20260501182912 | 47 | 217 | 0.0 | 2.0 | 0.00 | 0.00 | 0.00 | 64 | 1024.8 |
| 20260501182411 | 47 | 217 | 0.0 | 0.0 | 0.00 | 0.00 | 0.00 | 67 | 1024.7 |
| 20260501182402 | 47 | 217 | 0.0 | 0.0 | 0.00 | 0.00 | 0.00 | 68 | 1024.7 |
| 20260501181409 | 47 | 217 | 0.0 | 2.0 | 0.00 | 0.00 | 0.00 | 66 | 1024.5 |
| 20260501180907 | 48 | 217 | 0.0 | 2.0 | 0.00 | 0.00 | 0.00 | 64 | 1024.5 |
| 20260501180901 | 48 | 217 | 0.0 | 2.0 | 0.00 | 0.00 | 0.00 | 62 | 1024.5 |
| 20260501175903 | 48 | 217 | 0.0 | 0.0 | 0.00 | 0.00 | 0.00 | 65 | 1024.5 |
| 20260501175403 | 49 | 217 | 0.0 | 1.0 | 0.00 | 0.00 | 0.00 | 60 | 1024.5 |
| 20260501174906 | 49 | 217 | 0.0 | 2.0 | 0.00 | 0.00 | 0.00 | 61 | 1024.4 |
| 20260501174358 | 50 | 217 | 0.0 | 2.0 | 0.00 | 0.00 | 0.00 | 57 | 1024.4 |
| 20260501174120 | 49 | 138 | 0.0 | 0.0 | 0.00 | 0.00 | 0.00 | 60 | 1024.1 |
| 20260501173345 | 50 | 223 | 0.0 | 0.0 | 0.00 | 0.00 | 0.00 | 60 | 1024.2 |
| 20260501173105 | 51 | 223 | 0.0 | 0.0 | 0.00 | 0.00 | 0.00 | 56 | 1024.1 |
| 20260501172605 | 52 | 223 | 0.0 | 2.0 | 0.00 | 0.00 | 0.00 | 56 | 1024.1 |
| 20260501171838 | 52 | 223 | 0.0 | 2.0 | 0.00 | 0.00 | 0.00 | 51 | 1024.0 |
| 20260501171337 | 52 | 223 | 0.0 | 0.0 | 0.00 | 0.00 | 0.00 | 52 | 1024.0 |
| 20260501170835 | 53 | 223 | 1.0 | 4.0 | 0.00 | 0.00 | 0.00 | 48 | 1023.9 |
| 20260501170332 | 54 | 223 | 1.0 | 10.0 | 0.00 | 0.00 | 0.00 | 44 | 1023.9 |
| 20260501165831 | 54 | 257 | 2.0 | 10.0 | 0.00 | 0.00 | 0.00 | 45 | 1023.9 |
| 20260501165330 | 56 | 211 | 4.0 | 11.0 | 0.00 | 0.00 | 0.00 | 42 | 1023.9 |
| 20260501165100 | 55 | 275 | 4.0 | 11.0 | 0.00 | 0.00 | 0.00 | 40 | 1023.8 |
| 20260501164329 | 55 | 275 | 3.0 | 11.0 | 0.00 | 0.00 | 0.00 | 40 | 1023.8 |
| 20260501163829 | 55 | 321 | 4.0 | 14.0 | 0.00 | 0.00 | 0.00 | 39 | 1023.8 |
| 20260501163329 | 56 | 213 | 4.0 | 14.0 | 0.00 | 0.00 | 0.00 | 41 | 1023.8 |
| 20260501162829 | 55 | 350 | 5.0 | 14.0 | 0.00 | 0.00 | 0.00 | 42 | 1023.8 |
| 20260501162329 | 56 | 192 | 4.0 | 14.0 | 0.00 | 0.00 | 0.00 | 41 | 1023.8 |
| 20260501161829 | 55 | 244 | 4.0 | 10.0 | 0.00 | 0.00 | 0.00 | 43 | 1023.8 |
| 20260501161329 | 56 | 234 | 5.0 | 11.0 | 0.00 | 0.00 | 0.00 | 39 | 1023.9 |
| 20260501160829 | 56 | 203 | 4.0 | 11.0 | 0.00 | 0.00 | 0.00 | 38 | 1023.9 |
| 20260501160329 | 56 | 248 | 3.0 | 10.0 | 0.00 | 0.00 | 0.00 | 43 | 1023.9 |
| 20260501155830 | 56 | 271 | 3.0 | 11.0 | 0.00 | 0.00 | 0.00 | 40 | 1023.8 |
| 20260501155803 | 58 | 217 | 7.0 | 13.0 | 0.00 | 0.00 | 0.00 | 36 | 1023.9 |
| 20260501155521 | 57 | 192 | 5.0 | 11.0 | 0.00 | 0.00 | 0.00 | 38 | 1023.9 |
| 20260501154329 | 59 | 264 | 7.0 | 13.0 | 0.00 | 0.00 | 0.00 | 33 | 1023.9 |
| 20260501153829 | 58 | 298 | 4.0 | 12.0 | 0.00 | 0.00 | 0.00 | 34 | 1023.9 |
| 20260501153329 | 57 | 344 | 3.0 | 13.0 | 0.00 | 0.00 | 0.00 | 38 | 1023.9 |
| 20260501153054 | 57 | 292 | 5.0 | 13.0 | 0.00 | 0.00 | 0.00 | 34 | 1023.9 |
| 20260501152328 | 58 | 283 | 7.0 | 16.0 | 0.00 | 0.00 | 0.00 | 36 | 1023.9 |
| 20260501151830 | 58 | 313 | 5.0 | 16.0 | 0.00 | 0.00 | 0.00 | 32 | 1023.8 |
| 20260501151329 | 58 | 317 | 4.0 | 15.0 | 0.00 | 0.00 | 0.00 | 35 | 1023.8 |
| 20260501150828 | 58 | 271 | 7.0 | 14.0 | 0.00 | 0.00 | 0.00 | 36 | 1023.8 |
| 20260501150328 | 58 | 259 | 5.0 | 14.0 | 0.00 | 0.00 | 0.00 | 32 | 1023.8 |